| time (UTC) | temp F | wind direction | speed MPH | gust MPH | rain 1hr in | rain 24hr in | rain mn in | humidity % | barometer mb |
| 20260510045805 | 55 | 144 | 0.0 | 1.0 | 0.00 | 0.00 | 0.00 | 50 | 1012.2 |
| 20260510045306 | 55 | 141 | 1.0 | 3.0 | 0.00 | 0.00 | 0.00 | 50 | 1012.2 |
| 20260510044805 | 56 | 101 | 1.0 | 3.0 | 0.00 | 0.00 | 0.00 | 49 | 1012.2 |
| 20260510043806 | 56 | 98 | 0.0 | 1.0 | 0.00 | 0.00 | 0.00 | 48 | 1012.2 |
| 20260510043305 | 57 | 98 | 0.0 | 3.0 | 0.00 | 0.00 | 0.00 | 47 | 1012.2 |
| 20260510042306 | 57 | 98 | 0.0 | 1.0 | 0.00 | 0.00 | 0.00 | 47 | 1012.2 |
| 20260510041805 | 57 | 97 | 0.0 | 1.0 | 0.00 | 0.00 | 0.00 | 47 | 1012.1 |
| 20260510041305 | 58 | 97 | 0.0 | 0.0 | 0.00 | 0.00 | 0.00 | 46 | 1012.1 |
| 20260510040805 | 58 | 97 | 0.0 | 0.0 | 0.00 | 0.00 | 0.00 | 46 | 1012.0 |
| 20260510040305 | 58 | 98 | 0.0 | 1.0 | 0.00 | 0.00 | 0.00 | 46 | 1012.1 |
| 20260510035805 | 58 | 98 | 1.0 | 2.0 | 0.00 | 0.00 | 0.00 | 45 | 1012.0 |
| 20260510035306 | 59 | 99 | 0.0 | 1.0 | 0.00 | 0.00 | 0.00 | 45 | 1012.0 |
| 20260510034806 | 59 | 100 | 0.0 | 1.0 | 0.00 | 0.00 | 0.00 | 45 | 1012.0 |
| 20260510034304 | 59 | 100 | 0.0 | 0.0 | 0.00 | 0.00 | 0.00 | 44 | 1012.0 |
| 20260510033805 | 60 | 100 | 0.0 | 1.0 | 0.00 | 0.00 | 0.00 | 43 | 1012.0 |
| 20260510033304 | 60 | 100 | 0.0 | 1.0 | 0.00 | 0.00 | 0.00 | 43 | 1011.9 |
| 20260510032306 | 61 | 100 | 0.0 | 1.0 | 0.00 | 0.00 | 0.00 | 42 | 1011.9 |
| 20260510031804 | 61 | 96 | 0.0 | 3.0 | 0.00 | 0.00 | 0.00 | 41 | 1011.9 |
| 20260510031305 | 62 | 90 | 1.0 | 2.0 | 0.00 | 0.00 | 0.00 | 41 | 1011.8 |
| 20260510025805 | 63 | 90 | 0.0 | 1.0 | 0.00 | 0.00 | 0.00 | 39 | 1011.6 |
| 20260510025306 | 63 | 90 | 0.0 | 1.0 | 0.00 | 0.00 | 0.00 | 39 | 1011.6 |
| 20260510024304 | 64 | 90 | 1.0 | 5.0 | 0.00 | 0.00 | 0.00 | 38 | 1011.6 |
| 20260510023804 | 64 | 90 | 0.0 | 2.0 | 0.00 | 0.00 | 0.00 | 38 | 1011.6 |
| 20260510023306 | 64 | 90 | 0.0 | 1.0 | 0.00 | 0.00 | 0.00 | 37 | 1011.6 |
| 20260510022805 | 64 | 90 | 0.0 | 1.0 | 0.00 | 0.00 | 0.00 | 37 | 1011.6 |
| 20260510022306 | 65 | 89 | 0.0 | 2.0 | 0.00 | 0.00 | 0.00 | 37 | 1011.6 |
| 20260510021806 | 65 | 90 | 1.0 | 2.0 | 0.00 | 0.00 | 0.00 | 36 | 1011.6 |
| 20260510020304 | 66 | 91 | 2.0 | 3.0 | 0.00 | 0.00 | 0.00 | 35 | 1011.6 |
| 20260510015806 | 66 | 99 | 0.0 | 2.0 | 0.00 | 0.00 | 0.00 | 35 | 1011.7 |
| 20260510015306 | 66 | 98 | 1.0 | 3.0 | 0.00 | 0.00 | 0.00 | 35 | 1011.8 |
| 20260510014804 | 67 | 77 | 1.0 | 3.0 | 0.00 | 0.00 | 0.00 | 35 | 1011.8 |
| 20260510014305 | 67 | 101 | 1.0 | 3.0 | 0.00 | 0.00 | 0.00 | 34 | 1011.8 |
| 20260510013806 | 67 | 89 | 1.0 | 3.0 | 0.00 | 0.00 | 0.00 | 34 | 1011.7 |
| 20260510012804 | 67 | 150 | 1.0 | 3.0 | 0.00 | 0.00 | 0.00 | 34 | 1011.7 |
| 20260510011805 | 67 | 201 | 1.0 | 3.0 | 0.00 | 0.00 | 0.00 | 34 | 1011.7 |
| 20260510011305 | 67 | 204 | 1.0 | 5.0 | 0.00 | 0.00 | 0.00 | 34 | 1011.8 |
| 20260510010304 | 67 | 213 | 2.0 | 5.0 | 0.00 | 0.00 | 0.00 | 34 | 1011.8 |
| 20260510005805 | 67 | 93 | 2.0 | 3.0 | 0.00 | 0.00 | 0.00 | 35 | 1011.9 |
| 20260510005306 | 67 | 303 | 0.0 | 3.0 | 0.00 | 0.00 | 0.00 | 33 | 1011.8 |
| 20260510004804 | 68 | 303 | 2.0 | 3.0 | 0.00 | 0.00 | 0.00 | 33 | 1011.9 |
| 20260510003806 | 68 | 270 | 1.0 | 3.0 | 0.00 | 0.00 | 0.00 | 32 | 1012.0 |
| 20260510003305 | 69 | 269 | 1.0 | 3.0 | 0.00 | 0.00 | 0.00 | 31 | 1012.0 |
| 20260510002805 | 69 | 268 | 2.0 | 3.0 | 0.00 | 0.00 | 0.00 | 31 | 1012.0 |
| 20260510002307 | 69 | 268 | 2.0 | 3.0 | 0.00 | 0.00 | 0.00 | 30 | 1012.0 |
| 20260510001304 | 70 | 286 | 2.0 | 5.0 | 0.00 | 0.00 | 0.00 | 31 | 1011.9 |
| 20260510000804 | 69 | 286 | 2.0 | 6.0 | 0.00 | 0.00 | 0.00 | 31 | 1011.9 |
| 20260510000305 | 69 | 6 | 1.0 | 3.0 | 0.00 | 0.00 | 0.00 | 32 | 1011.9 |
| 20260509235306 | 69 | 350 | 0.0 | 3.0 | 0.00 | 0.00 | 0.00 | 32 | 1011.9 |
| 20260509234805 | 68 | 324 | 1.0 | 3.0 | 0.00 | 0.00 | 0.00 | 33 | 1011.9 |
| 20260509234306 | 68 | 310 | 1.0 | 3.0 | 0.00 | 0.00 | 0.00 | 33 | 1011.9 |
| 20260509233805 | 68 | 358 | 1.0 | 3.0 | 0.00 | 0.00 | 0.00 | 32 | 1011.9 |
| 20260509233305 | 68 | 356 | 1.0 | 3.0 | 0.00 | 0.00 | 0.00 | 32 | 1012.0 |
| 20260509232804 | 68 | 339 | 2.0 | 3.0 | 0.00 | 0.00 | 0.00 | 31 | 1012.0 |
| 20260509232306 | 69 | 297 | 3.0 | 6.0 | 0.00 | 0.00 | 0.00 | 31 | 1012.0 |
| 20260509231804 | 69 | 0 | 2.0 | 3.0 | 0.00 | 0.00 | 0.00 | 31 | 1012.0 |
| 20260509230305 | 69 | 264 | 2.0 | 5.0 | 0.00 | 0.00 | 0.00 | 30 | 1012.1 |
| 20260509225306 | 68 | 274 | 3.0 | 8.0 | 0.00 | 0.00 | 0.00 | 32 | 1012.2 |
| 20260509224805 | 68 | 296 | 2.0 | 7.0 | 0.00 | 0.00 | 0.00 | 34 | 1012.2 |
| 20260509224305 | 67 | 50 | 1.0 | 3.0 | 0.00 | 0.00 | 0.00 | 33 | 1012.2 |
| 20260509223804 | 68 | 42 | 1.0 | 3.0 | 0.00 | 0.00 | 0.00 | 32 | 1012.3 |
| 20260509223306 | 67 | 47 | 2.0 | 3.0 | 0.00 | 0.00 | 0.00 | 34 | 1012.3 |
| 20260509222804 | 66 | 11 | 0.0 | 2.0 | 0.00 | 0.00 | 0.00 | 34 | 1012.3 |
| 20260509222307 | 65 | 19 | 1.0 | 3.0 | 0.00 | 0.00 | 0.00 | 36 | 1012.4 |
| 20260509221804 | 65 | 19 | 2.0 | 3.0 | 0.00 | 0.00 | 0.00 | 36 | 1012.4 |
| 20260509220805 | 65 | 15 | 2.0 | 3.0 | 0.00 | 0.00 | 0.00 | 35 | 1012.5 |
| 20260509220304 | 65 | 339 | 1.0 | 3.0 | 0.00 | 0.00 | 0.00 | 36 | 1012.5 |
| 20260509215805 | 65 | 342 | 1.0 | 3.0 | 0.00 | 0.00 | 0.00 | 36 | 1012.5 |
| 20260509214305 | 64 | 274 | 2.0 | 3.0 | 0.00 | 0.00 | 0.00 | 36 | 1012.6 |
| 20260509213805 | 64 | 284 | 1.0 | 3.0 | 0.00 | 0.00 | 0.00 | 37 | 1012.6 |
| 20260509213305 | 64 | 284 | 0.0 | 3.0 | 0.00 | 0.00 | 0.00 | 38 | 1012.5 |
| 20260509212804 | 64 | 284 | 2.0 | 3.0 | 0.00 | 0.00 | 0.00 | 35 | 1012.6 |
| 20260509212306 | 65 | 270 | 3.0 | 6.0 | 0.00 | 0.00 | 0.00 | 35 | 1012.7 |
| 20260509211305 | 65 | 297 | 2.0 | 3.0 | 0.00 | 0.00 | 0.00 | 35 | 1012.6 |
| 20260509210805 | 65 | 293 | 1.0 | 3.0 | 0.00 | 0.00 | 0.00 | 37 | 1012.5 |
| 20260509210304 | 65 | 277 | 2.0 | 3.0 | 0.00 | 0.00 | 0.00 | 37 | 1012.5 |
| 20260509205805 | 65 | 252 | 2.0 | 5.0 | 0.00 | 0.00 | 0.00 | 37 | 1012.5 |
| 20260509205307 | 65 | 333 | 1.0 | 3.0 | 0.00 | 0.00 | 0.00 | 35 | 1012.5 |
| 20260509204805 | 65 | 312 | 1.0 | 3.0 | 0.00 | 0.00 | 0.00 | 37 | 1012.6 |
| 20260509203805 | 66 | 212 | 4.0 | 7.0 | 0.00 | 0.00 | 0.00 | 35 | 1012.6 |
| 20260509202804 | 65 | 253 | 1.0 | 3.0 | 0.00 | 0.00 | 0.00 | 36 | 1012.6 |
| 20260509202306 | 65 | 229 | 2.0 | 3.0 | 0.00 | 0.00 | 0.00 | 35 | 1012.6 |
| 20260509201804 | 65 | 224 | 1.0 | 3.0 | 0.00 | 0.00 | 0.00 | 36 | 1012.7 |
| 20260509200805 | 65 | 231 | 1.0 | 3.0 | 0.00 | 0.00 | 0.00 | 37 | 1012.7 |
| 20260509200304 | 65 | 316 | 2.0 | 3.0 | 0.00 | 0.00 | 0.00 | 36 | 1012.7 |
| 20260509195805 | 65 | 318 | 1.0 | 3.0 | 0.00 | 0.00 | 0.00 | 37 | 1012.8 |
| 20260509195306 | 65 | 354 | 0.0 | 2.0 | 0.00 | 0.00 | 0.00 | 37 | 1012.8 |
| 20260509194804 | 65 | 354 | 0.0 | 3.0 | 0.00 | 0.00 | 0.00 | 38 | 1012.8 |
| 20260509193305 | 65 | 358 | 4.0 | 8.0 | 0.00 | 0.00 | 0.00 | 38 | 1012.9 |
| 20260509192804 | 65 | 352 | 2.0 | 5.0 | 0.00 | 0.00 | 0.00 | 41 | 1012.8 |
| 20260509191305 | 64 | 280 | 3.0 | 7.0 | 0.00 | 0.00 | 0.00 | 38 | 1012.9 |
| 20260509190804 | 64 | 239 | 1.0 | 5.0 | 0.00 | 0.00 | 0.00 | 39 | 1012.9 |
| 20260509190305 | 64 | 280 | 1.0 | 3.0 | 0.00 | 0.00 | 0.00 | 39 | 1012.9 |
| 20260509185805 | 64 | 281 | 2.0 | 3.0 | 0.00 | 0.00 | 0.00 | 38 | 1012.8 |
| 20260509185306 | 64 | 247 | 2.0 | 6.0 | 0.00 | 0.00 | 0.00 | 38 | 1012.9 |
| 20260509184304 | 64 | 301 | 2.0 | 3.0 | 0.00 | 0.00 | 0.00 | 40 | 1012.9 |
| 20260509183805 | 64 | 272 | 2.0 | 3.0 | 0.00 | 0.00 | 0.00 | 40 | 1012.9 |
| 20260509183305 | 63 | 250 | 1.0 | 3.0 | 0.00 | 0.00 | 0.00 | 40 | 1012.9 |
| 20260509182804 | 63 | 190 | 2.0 | 3.0 | 0.00 | 0.00 | 0.00 | 41 | 1012.9 |
| 20260509181805 | 64 | 308 | 2.0 | 3.0 | 0.00 | 0.00 | 0.00 | 42 | 1012.9 |
| 20260509181304 | 64 | 12 | 2.0 | 5.0 | 0.00 | 0.00 | 0.00 | 43 | 1012.9 |
| 20260509180805 | 63 | 29 | 1.0 | 3.0 | 0.00 | 0.00 | 0.00 | 44 | 1012.9 |
| 20260509180305 | 63 | 29 | 1.0 | 3.0 | 0.00 | 0.00 | 0.00 | 44 | 1012.9 |
| 20260509175806 | 63 | 49 | 1.0 | 3.0 | 0.00 | 0.00 | 0.00 | 44 | 1012.8 |
| 20260509174805 | 63 | 43 | 2.0 | 3.0 | 0.00 | 0.00 | 0.00 | 44 | 1012.9 |
| 20260509174305 | 62 | 73 | 2.0 | 7.0 | 0.00 | 0.00 | 0.00 | 44 | 1012.9 |
| 20260509173805 | 62 | 29 | 1.0 | 3.0 | 0.00 | 0.00 | 0.00 | 47 | 1012.9 |
| 20260509172306 | 60 | 329 | 2.0 | 3.0 | 0.00 | 0.00 | 0.00 | 47 | 1012.9 |
| 20260509171305 | 59 | 1 | 1.0 | 3.0 | 0.00 | 0.00 | 0.00 | 51 | 1013.0 |
| 20260509170804 | 58 | 3 | 1.0 | 3.0 | 0.00 | 0.00 | 0.00 | 48 | 1013.0 |
| 20260509165805 | 58 | 3 | 0.0 | 3.0 | 0.00 | 0.00 | 0.00 | 49 | 1013.0 |
| 20260509165306 | 58 | 3 | 1.0 | 3.0 | 0.00 | 0.00 | 0.00 | 47 | 1013.0 |
| 20260509164305 | 57 | 16 | 2.0 | 3.0 | 0.00 | 0.00 | 0.00 | 50 | 1013.0 |
| 20260509163305 | 57 | 84 | 0.0 | 1.0 | 0.00 | 0.00 | 0.00 | 49 | 1013.0 |
| 20260509162804 | 56 | 84 | 1.0 | 3.0 | 0.00 | 0.00 | 0.00 | 47 | 1013.0 |
| 20260509162307 | 56 | 85 | 0.0 | 1.0 | 0.00 | 0.00 | 0.00 | 47 | 1013.1 |
| 20260509161304 | 56 | 86 | 0.0 | 2.0 | 0.00 | 0.00 | 0.00 | 45 | 1013.0 |
| 20260509160805 | 55 | 86 | 1.0 | 2.0 | 0.00 | 0.00 | 0.00 | 46 | 1012.9 |
| 20260509160304 | 55 | 86 | 1.0 | 2.0 | 0.00 | 0.00 | 0.00 | 44 | 1012.9 |
| 20260509155805 | 54 | 86 | 0.0 | 2.0 | 0.00 | 0.00 | 0.00 | 46 | 1012.8 |
| 20260509155306 | 54 | 86 | 1.0 | 2.0 | 0.00 | 0.00 | 0.00 | 46 | 1012.8 |
| 20260509154304 | 53 | 89 | 0.0 | 2.0 | 0.00 | 0.00 | 0.00 | 48 | 1012.7 |
| 20260509153806 | 53 | 89 | 1.0 | 3.0 | 0.00 | 0.00 | 0.00 | 48 | 1012.7 |
| 20260509153305 | 53 | 94 | 2.0 | 3.0 | 0.00 | 0.00 | 0.00 | 47 | 1012.7 |
| 20260509152804 | 53 | 94 | 2.0 | 3.0 | 0.00 | 0.00 | 0.00 | 47 | 1012.7 |
| 20260509152306 | 53 | 90 | 2.0 | 3.0 | 0.00 | 0.00 | 0.00 | 47 | 1012.7 |
| 20260509151805 | 53 | 88 | 0.0 | 3.0 | 0.00 | 0.00 | 0.00 | 47 | 1012.7 |
| 20260509151304 | 53 | 88 | 0.0 | 0.0 | 0.00 | 0.00 | 0.00 | 47 | 1012.6 |
| 20260509150804 | 53 | 88 | 0.0 | 0.0 | 0.00 | 0.00 | 0.00 | 47 | 1012.6 |
| 20260509145806 | 53 | 88 | 0.0 | 3.0 | 0.00 | 0.00 | 0.00 | 47 | 1012.6 |
| 20260509145306 | 53 | 88 | 0.0 | 0.0 | 0.00 | 0.00 | 0.00 | 47 | 1012.6 |
| 20260509144804 | 53 | 88 | 0.0 | 0.0 | 0.00 | 0.00 | 0.00 | 47 | 1012.6 |
| 20260509144305 | 53 | 88 | 0.0 | 0.0 | 0.00 | 0.00 | 0.00 | 47 | 1012.5 |
| 20260509143805 | 53 | 88 | 0.0 | 0.0 | 0.00 | 0.00 | 0.00 | 47 | 1012.5 |
| 20260509142804 | 52 | 88 | 0.0 | 0.0 | 0.00 | 0.00 | 0.00 | 47 | 1012.3 |
| 20260509142307 | 52 | 88 | 0.0 | 0.0 | 0.00 | 0.00 | 0.00 | 47 | 1012.2 |
| 20260509141805 | 52 | 88 | 0.0 | 0.0 | 0.00 | 0.00 | 0.00 | 47 | 1012.1 |
| 20260509141304 | 52 | 88 | 0.0 | 0.0 | 0.00 | 0.00 | 0.00 | 48 | 1012.1 |
| 20260509140805 | 52 | 88 | 0.0 | 0.0 | 0.00 | 0.00 | 0.00 | 49 | 1012.0 |
| 20260509140304 | 51 | 88 | 0.0 | 0.0 | 0.00 | 0.00 | 0.00 | 51 | 1012.0 |
| 20260509135805 | 51 | 88 | 0.0 | 0.0 | 0.00 | 0.00 | 0.00 | 52 | 1011.9 |
| 20260509135306 | 51 | 88 | 0.0 | 0.0 | 0.00 | 0.00 | 0.00 | 54 | 1011.8 |
| 20260509134804 | 51 | 88 | 0.0 | 0.0 | 0.00 | 0.00 | 0.00 | 53 | 1011.7 |
| 20260509134305 | 50 | 88 | 0.0 | 0.0 | 0.00 | 0.00 | 0.00 | 54 | 1011.8 |
| 20260509133805 | 50 | 88 | 0.0 | 0.0 | 0.00 | 0.00 | 0.00 | 55 | 1011.6 |
| 20260509133304 | 50 | 88 | 0.0 | 0.0 | 0.00 | 0.00 | 0.00 | 56 | 1011.7 |
| 20260509132805 | 49 | 88 | 0.0 | 0.0 | 0.00 | 0.00 | 0.00 | 57 | 1011.6 |
| 20260509132306 | 49 | 88 | 0.0 | 0.0 | 0.00 | 0.00 | 0.00 | 57 | 1011.5 |
| 20260509131805 | 49 | 88 | 0.0 | 0.0 | 0.00 | 0.00 | 0.00 | 56 | 1011.5 |
| 20260509131304 | 49 | 88 | 0.0 | 0.0 | 0.00 | 0.00 | 0.00 | 57 | 1011.5 |
| 20260509130804 | 49 | 88 | 0.0 | 0.0 | 0.00 | 0.00 | 0.00 | 57 | 1011.4 |
| 20260509130305 | 48 | 88 | 0.0 | 0.0 | 0.00 | 0.00 | 0.00 | 55 | 1011.4 |
| 20260509125307 | 48 | 88 | 0.0 | 0.0 | 0.00 | 0.00 | 0.00 | 54 | 1011.3 |
| 20260509124804 | 48 | 88 | 0.0 | 0.0 | 0.00 | 0.00 | 0.00 | 53 | 1011.3 |
| 20260509124305 | 48 | 88 | 0.0 | 0.0 | 0.00 | 0.00 | 0.00 | 53 | 1011.2 |
| 20260509123805 | 48 | 88 | 0.0 | 0.0 | 0.00 | 0.00 | 0.00 | 52 | 1011.2 |
| 20260509123304 | 48 | 88 | 0.0 | 0.0 | 0.00 | 0.00 | 0.00 | 51 | 1011.1 |
| 20260509122805 | 49 | 88 | 0.0 | 0.0 | 0.00 | 0.00 | 0.00 | 50 | 1011.1 |
| 20260509122306 | 49 | 88 | 0.0 | 0.0 | 0.00 | 0.00 | 0.00 | 50 | 1011.0 |
| 20260509121805 | 49 | 88 | 0.0 | 0.0 | 0.00 | 0.00 | 0.00 | 50 | 1010.9 |
| 20260509121304 | 49 | 88 | 0.0 | 0.0 | 0.00 | 0.00 | 0.00 | 50 | 1010.8 |
| 20260509120804 | 49 | 88 | 0.0 | 0.0 | 0.00 | 0.00 | 0.00 | 49 | 1010.8 |
| 20260509120304 | 49 | 88 | 0.0 | 0.0 | 0.00 | 0.00 | 0.00 | 49 | 1010.8 |
| 20260509115805 | 49 | 88 | 0.0 | 0.0 | 0.00 | 0.00 | 0.00 | 48 | 1010.8 |
| 20260509115307 | 49 | 88 | 0.0 | 0.0 | 0.00 | 0.00 | 0.00 | 47 | 1010.7 |
| 20260509114804 | 50 | 88 | 0.0 | 1.0 | 0.00 | 0.00 | 0.00 | 47 | 1010.7 |
| 20260509114305 | 50 | 88 | 1.0 | 2.0 | 0.00 | 0.00 | 0.00 | 48 | 1010.7 |
| 20260509113805 | 50 | 88 | 0.0 | 0.0 | 0.00 | 0.00 | 0.00 | 48 | 1010.7 |
| 20260509112307 | 50 | 88 | 0.0 | 0.0 | 0.00 | 0.00 | 0.00 | 49 | 1010.6 |
| 20260509111304 | 50 | 88 | 0.0 | 0.0 | 0.00 | 0.00 | 0.00 | 49 | 1010.5 |
| 20260509110805 | 50 | 88 | 0.0 | 0.0 | 0.00 | 0.00 | 0.00 | 50 | 1010.5 |
| 20260509110305 | 50 | 88 | 0.0 | 0.0 | 0.00 | 0.00 | 0.00 | 50 | 1010.5 |
| 20260509105805 | 51 | 88 | 0.0 | 0.0 | 0.00 | 0.00 | 0.00 | 50 | 1010.5 |
| 20260509105306 | 50 | 88 | 1.0 | 3.0 | 0.00 | 0.00 | 0.00 | 49 | 1010.5 |
| 20260509104804 | 50 | 88 | 0.0 | 3.0 | 0.00 | 0.00 | 0.00 | 49 | 1010.6 |
| 20260509104306 | 50 | 88 | 0.0 | 0.0 | 0.00 | 0.00 | 0.00 | 49 | 1010.6 |
| 20260509103304 | 50 | 88 | 0.0 | 0.0 | 0.00 | 0.00 | 0.00 | 50 | 1010.5 |
| 20260509102805 | 50 | 88 | 0.0 | 0.0 | 0.00 | 0.00 | 0.00 | 50 | 1010.5 |
| 20260509102306 | 50 | 88 | 0.0 | 0.0 | 0.00 | 0.00 | 0.00 | 50 | 1010.5 |
| 20260509101804 | 50 | 88 | 0.0 | 0.0 | 0.00 | 0.00 | 0.00 | 50 | 1010.5 |
| 20260509101304 | 50 | 88 | 0.0 | 2.0 | 0.00 | 0.00 | 0.00 | 51 | 1010.4 |
| 20260509100805 | 50 | 88 | 1.0 | 3.0 | 0.00 | 0.00 | 0.00 | 51 | 1010.4 |
| 20260509100306 | 49 | 91 | 0.0 | 0.0 | 0.00 | 0.00 | 0.00 | 50 | 1010.4 |
| 20260509095804 | 49 | 91 | 0.0 | 0.0 | 0.00 | 0.00 | 0.00 | 51 | 1010.4 |
| 20260509095306 | 49 | 91 | 0.0 | 0.0 | 0.00 | 0.00 | 0.00 | 51 | 1010.4 |
| 20260509094805 | 49 | 91 | 0.0 | 0.0 | 0.00 | 0.00 | 0.00 | 50 | 1010.3 |
| 20260509093804 | 49 | 91 | 0.0 | 0.0 | 0.00 | 0.00 | 0.00 | 52 | 1010.3 |
| 20260509093305 | 49 | 91 | 0.0 | 0.0 | 0.00 | 0.00 | 0.00 | 53 | 1010.3 |
| 20260509092306 | 49 | 91 | 0.0 | 0.0 | 0.00 | 0.00 | 0.00 | 52 | 1010.3 |
| 20260509091804 | 49 | 91 | 0.0 | 0.0 | 0.00 | 0.00 | 0.00 | 50 | 1010.2 |
| 20260509091305 | 49 | 91 | 0.0 | 0.0 | 0.00 | 0.00 | 0.00 | 50 | 1010.2 |
| 20260509090805 | 50 | 91 | 0.0 | 0.0 | 0.00 | 0.00 | 0.00 | 49 | 1010.2 |
| 20260509090305 | 50 | 91 | 0.0 | 0.0 | 0.00 | 0.00 | 0.00 | 48 | 1010.2 |
| 20260509085804 | 50 | 91 | 0.0 | 0.0 | 0.00 | 0.00 | 0.00 | 48 | 1010.2 |
| 20260509085306 | 50 | 91 | 0.0 | 0.0 | 0.00 | 0.00 | 0.00 | 47 | 1010.2 |
| 20260509084304 | 51 | 91 | 0.0 | 0.0 | 0.00 | 0.00 | 0.00 | 45 | 1010.1 |
| 20260509083304 | 51 | 91 | 0.0 | 0.0 | 0.00 | 0.00 | 0.00 | 45 | 1010.1 |
| 20260509082805 | 51 | 91 | 0.0 | 0.0 | 0.00 | 0.00 | 0.00 | 45 | 1010.1 |
| 20260509082307 | 51 | 91 | 0.0 | 0.0 | 0.00 | 0.00 | 0.00 | 45 | 1010.0 |
| 20260509081804 | 52 | 91 | 0.0 | 0.0 | 0.00 | 0.00 | 0.00 | 45 | 1010.0 |
| 20260509080805 | 52 | 91 | 0.0 | 0.0 | 0.00 | 0.00 | 0.00 | 45 | 1010.0 |
| 20260509080304 | 52 | 91 | 0.0 | 0.0 | 0.00 | 0.00 | 0.00 | 44 | 1010.0 |
| 20260509075805 | 52 | 91 | 0.0 | 0.0 | 0.00 | 0.00 | 0.00 | 44 | 1010.0 |
| 20260509075306 | 52 | 91 | 0.0 | 0.0 | 0.00 | 0.00 | 0.00 | 44 | 1010.0 |
| 20260509074805 | 52 | 91 | 0.0 | 0.0 | 0.00 | 0.00 | 0.00 | 43 | 1010.0 |
| 20260509074304 | 52 | 91 | 0.0 | 0.0 | 0.00 | 0.00 | 0.00 | 43 | 1010.0 |
| 20260509073804 | 53 | 91 | 0.0 | 0.0 | 0.00 | 0.00 | 0.00 | 42 | 1010.0 |
| 20260509073304 | 53 | 91 | 0.0 | 0.0 | 0.00 | 0.00 | 0.00 | 41 | 1010.0 |
| 20260509072805 | 53 | 91 | 0.0 | 0.0 | 0.00 | 0.00 | 0.00 | 41 | 1010.0 |
| 20260509071804 | 54 | 91 | 0.0 | 0.0 | 0.00 | 0.00 | 0.00 | 40 | 1010.0 |
| 20260509071304 | 54 | 91 | 0.0 | 0.0 | 0.00 | 0.00 | 0.00 | 40 | 1009.9 |
| 20260509070805 | 54 | 91 | 0.0 | 2.0 | 0.00 | 0.00 | 0.00 | 40 | 1010.0 |
| 20260509070304 | 54 | 91 | 0.0 | 2.0 | 0.00 | 0.00 | 0.00 | 40 | 1009.9 |
| 20260509065804 | 54 | 92 | 1.0 | 3.0 | 0.00 | 0.00 | 0.00 | 39 | 1009.8 |
| 20260509065306 | 55 | 92 | 0.0 | 2.0 | 0.00 | 0.00 | 0.00 | 39 | 1009.8 |
| 20260509064805 | 55 | 92 | 0.0 | 3.0 | 0.00 | 0.00 | 0.00 | 39 | 1009.8 |
| 20260509063305 | 55 | 93 | 2.0 | 5.0 | 0.00 | 0.00 | 0.00 | 38 | 1009.4 |
| 20260509062306 | 55 | 98 | 2.0 | 3.0 | 0.00 | 0.00 | 0.00 | 37 | 1009.4 |
| 20260509061805 | 56 | 98 | 1.0 | 3.0 | 0.00 | 0.00 | 0.00 | 37 | 1009.3 |
| 20260509061304 | 56 | 93 | 2.0 | 5.0 | 0.00 | 0.00 | 0.00 | 37 | 1009.3 |
| 20260509060820 | 56 | 98 | 3.0 | 7.0 | 0.00 | 0.00 | 0.00 | 36 | 1009.3 |
| 20260509060304 | 56 | 124 | 2.0 | 3.0 | 0.00 | 0.00 | 0.00 | 36 | 1009.3 |
| 20260509055804 | 56 | 89 | 2.0 | 5.0 | 0.00 | 0.00 | 0.00 | 36 | 1009.3 |
| 20260509055306 | 56 | 106 | 2.0 | 5.0 | 0.00 | 0.00 | 0.00 | 36 | 1009.3 |
| 20260509054805 | 57 | 95 | 1.0 | 3.0 | 0.00 | 0.00 | 0.00 | 35 | 1009.3 |
| 20260509054305 | 57 | 100 | 1.0 | 3.0 | 0.00 | 0.00 | 0.00 | 35 | 1009.2 |
| 20260509053804 | 57 | 106 | 2.0 | 7.0 | 0.00 | 0.00 | 0.00 | 35 | 1009.1 |
| 20260509053304 | 57 | 71 | 2.0 | 5.0 | 0.00 | 0.00 | 0.00 | 34 | 1009.1 |
| 20260509052806 | 57 | 77 | 3.0 | 5.0 | 0.00 | 0.00 | 0.00 | 34 | 1009.1 |
| 20260509052307 | 58 | 106 | 2.0 | 6.0 | 0.00 | 0.00 | 0.00 | 34 | 1009.1 |
| 20260509051805 | 58 | 115 | 3.0 | 7.0 | 0.00 | 0.00 | 0.00 | 34 | 1009.1 |
| 20260509051305 | 58 | 107 | 3.0 | 8.0 | 0.00 | 0.00 | 0.00 | 34 | 1009.0 |
| 20260509050806 | 58 | 90 | 1.0 | 7.0 | 0.00 | 0.00 | 0.00 | 33 | 1008.9 |
| 20260509050304 | 58 | 96 | 2.0 | 9.0 | 0.00 | 0.00 | 0.00 | 33 | 1008.8 |